# From MPC 24219 1 Ceres,e,10.5833,80.4935,73.9305,2.766667,0.2141750,0.078432,18.0567,02/26.0/2000,2000,H 3.34,0.12 # From MPC 24084 2 Pallas,e,34.8460,173.1980,310.2726,2.772360,0.2135156,0.229655,4.8062,02/26.0/2000,2000,H 4.13,0.11 # From MPC 24084 3 Juno,e,12.9675,170.1711,248.0431,2.667903,0.2261773,0.258478,252.8110,02/26.0/2000,2000,H 5.33,0.32 # From MPC 24219 4 Vesta,e,7.1340,103.9507,149.5769,2.361487,0.2715975,0.090000,356.1056,02/26.0/2000,2000,H 3.20,0.32 # From MPC 24219 5 Astraea,e,5.3677,141.7043,357.6818,2.574119,0.2386498,0.192308,52.8861,02/26.0/2000,2000,H 6.85,0.15 # From MPC 24084 7 Iris,e,5.5241,259.8739,145.0859,2.385360,0.2675305,0.230376,68.2483,02/26.0/2000,2000,H 5.51,0.15 # From MPC 24084 8 Flora,e,5.8858,111.0414,285.1702,2.201534,0.3017282,0.156229,242.6348,02/26.0/2000,2000,H 6.49,0.28 # From MPC 24085 9 Metis,e,5.5786,69.0032,5.8436,2.386530,0.2673337,0.121710,206.0402,02/26.0/2000,2000,H 6.28,0.17 # From MPC 35055 10 Hygiea,e,3.8427,283.6608,314.3544,3.138446,0.1772687,0.119462,349.0661,02/26.0/2000,2000,H 5.43,0.15 # From MPC 24085 11 Parthenope,e,4.6218,125.6589,194.2994,2.453054,0.2565331,0.099124,284.2693,02/26.0/2000,2000,H 6.55,0.15 # From MPC 24085 12 Victoria,e,8.3692,235.6293,69.3975,2.334556,0.2763106,0.218651,358.8999,02/26.0/2000,2000,H 7.24,0.22 # From MPC 24219 15 Eunomia,e,11.7470,293.5145,96.9764,2.643883,0.2292665,0.186168,119.8737,02/26.0/2000,2000,H 5.28,0.23 # From MPC 35055 16 Psyche,e,3.0932,150.4648,229.0984,2.921063,0.1974207,0.138380,346.5728,02/26.0/2000,2000,H 5.90,0.20 # From MPC 24548 17 Thetis,e,5.5858,125.6441,135.5535,2.469865,0.2539185,0.136019,327.2094,02/26.0/2000,2000,H 7.76,0.15 # From MPC 24085 18 Melpomene,e,10.1287,150.5794,227.6584,2.295107,0.2834651,0.218069,84.0044,02/26.0/2000,2000,H 6.51,0.25 # From MPC 24219 19 Fortuna,e,1.5719,211.4904,181.9849,2.442728,0.2581615,0.158092,189.3959,02/26.0/2000,2000,H 7.13,0.10 # From MPC 24085 20 Massalia,e,0.7057,206.6020,255.5839,2.409418,0.2635335,0.142420,73.5168,02/26.0/2000,2000,H 6.50,0.25 # From MPC 15523 21 Lutetia,e,3.0661,80.9467,250.1275,2.435619,0.2592926,0.161685,328.8003,02/26.0/2000,2000,H 7.35,0.11 # From MPC 12188 22 Kalliope,e,13.7234,66.3243,357.3003,2.908236,0.1987283,0.101449,245.1131,02/26.0/2000,2000,H 6.45,0.21 # From MPC 23111 26 Proserpina,e,3.5621,45.9522,193.8081,2.655930,0.2277085,0.088384,311.1681,02/26.0/2000,2000,H 7.5,0.15 # From MPC 28564 27 Euterpe,e,1.5838,94.8137,356.6963,2.346540,0.2741966,0.171880,216.0668,02/26.0/2000,2000,H 7.0,0.15 # From MPC 24219 28 Bellona,e,9.3994,144.6040,342.8116,2.776341,0.2130566,0.150112,224.2003,02/26.0/2000,2000,H 7.09,0.15 # From MPC 24085 30 Urania,e,2.0973,307.9804,86.6050,2.365154,0.2709661,0.126899,293.3567,02/26.0/2000,2000,H 7.57,0.15 # From MPC 24219 31 Euphrosyne,e,26.3447,31.2926,62.3005,3.146810,0.1765624,0.227778,293.2026,02/26.0/2000,2000,H 6.74,0.15 # From MPC 30777 39 Laetitia,e,10.3684,157.2404,208.5345,2.769856,0.2138053,0.111536,244.6115,02/26.0/2000,2000,H 6.1,0.15 # From MPC 31001 40 Harmonia,e,4.2561,94.3194,268.9750,2.267533,0.2886513,0.046085,247.4200,02/26.0/2000,2000,H 7.0,0.15 # From MPC 24548 44 Nysa,e,3.7022,131.6244,342.5733,2.423801,0.2611913,0.148087,54.9877,02/26.0/2000,2000,H 7.03,0.46 # From MPC 25033 45 Eugenia,e,6.6111,147.9765,86.4383,2.720353,0.2196677,0.082995,302.7084,02/26.0/2000,2000,H 7.46,0.07 # From MPC 35405 48 Doris,e,6.5490,183.9604,260.4684,3.107680,0.1799077,0.073791,243.8048,02/26.0/2000,2000,H 6.90,0.15 # From MPC 31001 51 Nemausa,e,9.9675,176.2148,3.3047,2.365710,0.2708706,0.066704,358.9848,02/26.0/2000,2000,H 7.35,0.08 # From MPC 24371 52 Europa,e,7.4676,129.0453,342.3585,3.099105,0.1806548,0.101020,52.6400,02/26.0/2000,2000,H 6.31,0.18 # From MPC 25033 55 Pandora,e,7.1830,10.6980,4.7342,2.759342,0.2150283,0.142411,296.7725,02/26.0/2000,2000,H 7.8,0.15 # From MPC 25033 64 Angelina,e,1.3066,309.6396,178.6357,2.683683,0.2241854,0.124956,267.9001,02/26.0/2000,2000,H 7.67,0.48 # From MPC 27086 69 Hesperia,e,8.5874,185.2187,289.5142,2.980315,0.1915626,0.164489,38.4518,02/26.0/2000,2000,H 7.05,0.19 # From MPC 23111 80 Sappho,e,8.6664,218.8943,139.2241,2.296204,0.2832620,0.200011,274.4009,02/26.0/2000,2000,H 7.98,0.15 # From MPC 31001 88 Thisbe,e,5.2226,276.8915,35.1560,2.768229,0.2139937,0.161388,352.2547,02/26.0/2000,2000,H 7.04,0.14 # From MPC 30777 89 Julia,e,16.1352,311.7001,44.6849,2.551645,0.2418097,0.181554,244.7227,02/26.0/2000,2000,H 6.60,0.15 # From MPC 15526 115 Thyra,e,11.5978,309.1741,96.4598,2.379365,0.2685421,0.192040,297.9369,02/26.0/2000,2000,H 7.51,0.12 # From MPC 15526 129 Antigone,e,12.2241,136.4822,108.6150,2.867357,0.2029932,0.214126,322.6023,02/26.0/2000,2000,H 7.07,0.33 # From MPC 24085 135 Hertha,e,2.3024,344.0727,339.6224,2.429575,0.2602607,0.204194,315.5663,02/26.0/2000,2000,H 8.23,0.15 # From MPC 25033 140 Siwa,e,3.1893,107.3695,195.7176,2.732091,0.2182535,0.216008,332.7541,02/26.0/2000,2000,H 8.34,0.15 # From MPC 27289 173 Ino,e,14.1949,148.4309,228.5232,2.742659,0.2169933,0.207175,316.0464,02/26.0/2000,2000,H 7.66,0.01 # From MPC 25186 187 Lamberta,e,10.5958,21.9448,195.4110,2.732043,0.2182593,0.237176,349.0933,02/26.0/2000,2000,H 8.16,0.15 # From MPC 31001 192 Nausikaa,e,6.8235,343.5164,29.9551,2.402410,0.2646874,0.246996,306.4291,02/26.0/2000,2000,H 7.13,0.03 # From MPC 15528 196 Philomela,e,7.2536,72.6607,207.1838,3.113789,0.1793784,0.024977,268.7054,02/26.0/2000,2000,H 6.54,0.15 # From MPC 31001 230 Athamantis,e,9.4375,240.0088,140.0595,2.381857,0.2681208,0.060958,307.0223,02/26.0/2000,2000,H 7.35,0.27 # From MPC 31001 324 Bamberga,e,11.0998,328.0993,44.2927,2.683716,0.2241813,0.337727,320.5853,02/26.0/2000,2000,H 6.82,0.09 # From MPC 24220 344 Desiderata,e,18.3992,48.5827,236.5981,2.592673,0.2360926,0.317755,326.9419,02/26.0/2000,2000,H 8.08,0.15 # From MPC 31001 349 Dembowska,e,8.2448,32.6491,344.9350,2.926673,0.1968533,0.086004,206.0475,02/26.0/2000,2000,H 5.93,0.37 # From MPC 34570 372 Palma,e,23.8667,327.5236,116.2349,3.142042,0.1769645,0.264043,294.9964,02/26.0/2000,2000,H 7.2,0.15 # From MPC 25034 385 Ilmatar,e,13.5666,345.2845,188.7512,2.848895,0.2049696,0.125600,15.7742,02/26.0/2000,2000,H 7.49,0.15 # From MPC 24220 386 Siegena,e,20.2405,167.0430,220.7686,2.894878,0.2001053,0.171588,304.8549,02/26.0/2000,2000,H 7.43,0.16 # From MPC 25186 391 Ingeborg,e,23.1739,213.0425,146.6912,2.320098,0.2788974,0.306562,307.8872,02/26.0/2000,2000,H10.1,0.15 # From MPC 24220 393 Lampetia,e,14.8772,213.3573,89.3215,2.777548,0.2129177,0.331308,337.3751,02/26.0/2000,2000,H 8.39,0.15 # From MPC 24220 419 Aurelia,e,3.9305,229.6683,43.9219,2.593938,0.2359200,0.255437,323.6549,02/26.0/2000,2000,H 8.42,0.15 # From MPC 31001 471 Papagena,e,14.9903,84.1291,314.9708,2.886623,0.2009644,0.232454,279.9514,02/26.0/2000,2000,H 6.73,0.37 # From MPC 34570 626 Notburga,e,25.3419,341.8453,43.7950,2.574406,0.2386100,0.242574,285.1296,02/26.0/2000,2000,H 9.00,0.15 # From MPC 31002 704 Interamnia,e,17.3240,280.6551,94.5340,3.063860,0.1837810,0.146131,252.7662,02/26.0/2000,2000,H 5.94,-0.02